THOR ABLESTAR DEB, 264

Orbit data source: Space-Track

THOR ABLESTAR DEB, 264 is space debris in LEO originally from a launch on Thu, 29 Jun 1961 UTC launched from the Air Force Eastern Test Range (AFETR). Debris objects in space refer to the collection of defunct objects orbiting the Earth. Examples of debris include non-operational satellites, rocket bodies, and fragments generated from explosions, collisions, or faulty payload assembly.

Loading next visibility...
THOR ABLESTAR DEB details
Identifier
264, 1961-015CL
Orbit
LEO
Last TLE update20 hours ago
Origin
Flag of USUSAF SSD (US)
ManufacturerUnknown
MissionSpacecraft
Bus & MotorUnknown
MassUnknown
Launch date (UTC)
1961-06-29 (64 years ago)
Launch vehicleUnknown
Launch site
Air Force Eastern Test Range (AFETR)
Object type
Payload
Rocket body
Debris
Shape & HBRUnknown
Radar Cross SectionMedium (>0.1 m² and <1 m²)

Expand to show TLE details & history

TLE from 20 hours ago
0 THOR ABLESTAR DEB
1 00264U 61015CL  25035.55205901  .00005030  00000-0  17600-2 0  9991
2 00264  66.5251 119.6800 0024253 358.3702   1.7314 14.35758363262122
Epoch: 2025-02-04T13:14Z
Definitive object data (Epoch: 2025-02-04T13:14:57.898Z)
Latitude-0.00005°
Longitude145.98302°
Altitude757.31 km
Speed7.485 km/s
True Right ascension07h 58m 43s
True Declination0° 00' 00"
Sunlit
Object was in full shadow at TLE epoch
Visualization TLE readout
Latitude-56.64157°
Longitude4.82921°
Altitude800.199 km
Speed7.449 km/s
Apparent Right ascension22h 42m 31s
Apparent Declination-48° 36' 58"
Sunlit
Object is in daylight
Visualization observer readout
Local Sidereal Time10:49:19
Azimuth172.626° S
Elevation-81.216°
Doppler factor1
Orbital elements
Apogee altitude788.277 km
Perigee altitude753.6 km
Semi-major axis7,149.075 km
Eccentricity0.0024253
Inclination66.5251°
RAAN119.68°
Arg. of periapsis358.3702°
True anomaly1.73982°
Mean anomaly1.7314°
Eccentric anomaly1.73561°
Mean motion3.59061 °/min
BSTAR0.00176
Orbital period100.26 mins
Loading maneuver chart data...

THOR ABLESTAR DEB Visibility forecast

Observer location: undefined°, undefined

Span
Click to sort rows by Start time (UTC) header in descending order
Start Az.
Max El. time (UTC)
Max El. Az.
Max El.
End time (UTC)
End Az.
7 mins2025-02-05 14:50:45.569Z358.332° N2025-02-05 14:54:45.569Z48.491° ENE19.955°2025-02-05 14:57:45.569Z87.996° E
8 mins2025-02-05 16:34:45.569Z318.184° NNW2025-02-05 16:37:45.569Z264.271° W40.807°2025-02-05 16:42:45.569Z166.926° S
4 mins2025-02-06 05:31:45.569Z120.341° SE2025-02-06 05:32:45.569Z107.28° ESE14.773°2025-02-06 05:35:45.569Z71.37° E
8 mins2025-02-06 07:11:45.569Z222.435° SW2025-02-06 07:15:45.569Z327.156° NNW41.908°2025-02-06 07:19:45.569Z22.42° NNE
|